This is the latest recevied weather packets stored in our database for station/object KC9GSD. If no packets are shown the sender has not sent any weather packets the latest 10 day(s).
| Time | Temp. | Humidity | Pressure | Rain* | Wind** | Luminosity | Snow |
|---|---|---|---|---|---|---|---|
| 1778115705 | 17.78° C | 96% | 1012.2 hPa | 0 mm | - | 0 W/m² | - |
| 1778115403 | 17.78° C | 96% | 1012.5 hPa | 0 mm | - | 0 W/m² | - |
| 1778115099 | 17.78° C | 96% | 1012.6 hPa | 0 mm | - | 0 W/m² | - |
| 1778114796 | 17.78° C | 96% | 1012.4 hPa | 0 mm | - | 0 W/m² | - |
| 1778114494 | 17.78° C | 96% | 1012.4 hPa | 0 mm | - | 0 W/m² | - |
| 1778114190 | 17.78° C | 96% | 1012.4 hPa | 1.27 mm | - | 1 W/m² | - |
| 1778113890 | 18.33° C | 96% | 1012 hPa | 1.27 mm | - | 2 W/m² | - |
| 1778113587 | 18.33° C | 96% | 1012.1 hPa | 0 mm | - | 3 W/m² | - |
| 1778113282 | 17.78° C | 96% | 1012.4 hPa | 0 mm | - | 4 W/m² | - |
| 1778112979 | 17.78° C | 96% | 1012.5 hPa | 1.78 mm | - | 3 W/m² | - |
| 1778112677 | 17.78° C | 96% | 1012.4 hPa | 4.83 mm | - | 8 W/m² | - |
| 1778112373 | 17.78° C | 96% | 1012.3 hPa | 3.05 mm | - | 9 W/m² | - |
| 1778112068 | 17.78° C | 96% | 1012.4 hPa | 0 mm | - | 4 W/m² | - |
| 1778111766 | 17.78° C | 96% | 1012.6 hPa | 1.27 mm | - | 5 W/m² | - |
| 1778111466 | 18.33° C | 96% | 1012.7 hPa | 3.05 mm | - | 4 W/m² | - |
| 1778111164 | 17.78° C | 96% | 1012.7 hPa | 9.65 mm | - | 4 W/m² | - |
| 1778110861 | 18.33° C | 96% | 1012.2 hPa | 11.94 mm | - | 11 W/m² | - |
| 1778110558 | 18.33° C | 96% | 1012.6 hPa | 6.1 mm | - | 8 W/m² | - |
| 1778110255 | 18.33° C | 96% | 1012.3 hPa | 3.05 mm | - | 4 W/m² | - |
| 1778109951 | 18.33° C | 96% | 1012.5 hPa | 3.05 mm | - | 5 W/m² | - |
| 1778109646 | 18.33° C | 95% | 1011.9 hPa | 1.78 mm | - | 9 W/m² | - |
| 1778109344 | 18.33° C | 95% | 1012 hPa | 4.32 mm | - | 5 W/m² | - |
| 1778109042 | 18.33° C | 95% | 1011.8 hPa | 28.7 mm | - | 9 W/m² | - |
| 1778108738 | 18.33° C | 95% | 1011.8 hPa | 64.26 mm | - | 7 W/m² | - |
| 1778108435 | 18.33° C | 94% | 1011.8 hPa | 77.98 mm | - | 8 W/m² | - |
* Rain latest hour (hover to see other rain measurements)
** Current wind speed in m/s (hover to see current wind gust speed)